Time,TemperatureF,DewpointF,PressureIn,WindDirection,WindDirectionDegrees,WindSpeedMPH,WindSpeedGustMPH,Humidity,HourlyPrecipIn,Conditions,Clouds,dailyrainin,SoftwareType,DateUTC
2013-04-28 00:09:00,47.1,42.8,29.99,SE,127,0.0,0.0,85,0.00,,,0.00,Wunderground v.1.15,2013-04-28 05:09:00,
2013-04-28 00:14:00,46.9,42.9,29.99,SE,127,0.0,0.0,86,0.00,,,0.00,Wunderground v.1.15,2013-04-28 05:14:00,
2013-04-28 00:19:00,47.0,43.0,29.99,SE,127,0.0,0.0,86,0.00,,,0.00,Wunderground v.1.15,2013-04-28 05:19:00,
2013-04-28 00:24:00,46.8,42.8,29.99,SE,127,0.0,0.0,86,0.00,,,0.00,Wunderground v.1.15,2013-04-28 05:24:00,
2013-04-28 00:34:00,46.0,42.3,29.99,SW,221,0.0,0.0,87,0.00,,,0.00,Wunderground v.1.15,2013-04-28 05:34:00,
2013-04-28 00:39:00,45.9,42.5,29.99,SW,221,0.0,0.0,88,0.00,,,0.00,Wunderground v.1.15,2013-04-28 05:39:00,
2013-04-28 00:44:00,45.7,42.3,29.99,SW,221,0.0,0.0,88,0.00,,,0.00,Wunderground v.1.15,2013-04-28 05:44:00,
2013-04-28 00:49:00,45.4,42.1,29.99,SW,221,0.0,0.0,88,0.00,,,0.00,Wunderground v.1.15,2013-04-28 05:49:00,
2013-04-28 00:54:00,45.1,42.1,29.99,SW,221,0.0,0.0,89,0.00,,,0.00,Wunderground v.1.15,2013-04-28 05:54:00,
2013-04-28 01:04:00,44.6,41.6,29.99,SW,221,0.0,0.0,89,0.00,,,0.00,Wunderground v.1.15,2013-04-28 06:04:00,
2013-04-28 01:09:00,44.6,41.8,29.98,SW,221,0.0,0.0,90,0.00,,,0.00,Wunderground v.1.15,2013-04-28 06:09:00,
2013-04-28 01:14:00,44.6,41.8,29.98,SW,221,0.0,0.0,90,0.00,,,0.00,Wunderground v.1.15,2013-04-28 06:14:00,
2013-04-28 01:19:00,44.4,41.4,29.98,SW,221,0.0,0.0,89,0.00,,,0.00,Wunderground v.1.15,2013-04-28 06:19:00,
2013-04-28 01:24:00,44.0,41.0,29.98,SW,221,0.0,0.0,89,0.00,,,0.00,Wunderground v.1.15,2013-04-28 06:24:00,
2013-04-28 01:29:00,43.6,40.9,29.98,SW,221,0.0,0.0,90,0.00,,,0.00,Wunderground v.1.15,2013-04-28 06:29:00,
2013-04-28 01:39:00,43.9,41.2,29.98,SW,221,0.0,0.0,90,0.00,,,0.00,Wunderground v.1.15,2013-04-28 06:39:00,
2013-04-28 01:44:00,43.8,41.1,29.98,SSE,166,0.0,0.0,90,0.00,,,0.00,Wunderground v.1.15,2013-04-28 06:44:00,
2013-04-28 01:49:00,43.8,41.3,29.97,SSE,167,0.0,0.0,91,0.00,,,0.00,Wunderground v.1.15,2013-04-28 06:49:00,
2013-04-28 01:59:00,43.8,41.3,29.97,SSE,167,0.0,0.0,91,0.00,,,0.00,Wunderground v.1.15,2013-04-28 06:59:00,
2013-04-28 02:08:00,43.0,40.6,29.97,SSE,166,0.0,0.0,91,0.00,,,0.00,Wunderground v.1.15,2013-04-28 07:08:00,
2013-04-28 02:13:00,42.5,40.1,29.97,SSE,166,0.0,0.0,91,0.00,,,0.00,Wunderground v.1.15,2013-04-28 07:13:00,
2013-04-28 02:18:00,42.3,40.1,29.97,SSE,166,0.0,0.0,92,0.00,,,0.00,Wunderground v.1.15,2013-04-28 07:18:00,
2013-04-28 02:23:00,42.4,40.5,29.97,SSE,166,0.0,0.0,93,0.00,,,0.00,Wunderground v.1.15,2013-04-28 07:23:00,
2013-04-28 02:29:00,42.4,40.5,29.96,SSE,166,0.0,0.0,93,0.00,,,0.00,Wunderground v.1.15,2013-04-28 07:29:00,
2013-04-28 02:34:00,42.3,40.4,29.96,SSE,167,0.0,0.0,93,0.00,,,0.00,Wunderground v.1.15,2013-04-28 07:34:00,
2013-04-28 02:43:00,42.8,41.2,29.96,SSE,167,0.0,0.0,94,0.00,,,0.00,Wunderground v.1.15,2013-04-28 07:43:00,
2013-04-28 02:48:00,42.6,40.7,29.95,SSE,166,0.0,0.0,93,0.00,,,0.00,Wunderground v.1.15,2013-04-28 07:48:00,
2013-04-28 02:53:00,42.3,40.4,29.95,SSE,166,0.0,0.0,93,0.00,,,0.00,Wunderground v.1.15,2013-04-28 07:53:00,
2013-04-28 02:58:00,41.8,39.9,29.95,SSE,166,0.0,0.0,93,0.00,,,0.00,Wunderground v.1.15,2013-04-28 07:58:00,
2013-04-28 03:08:00,40.9,38.8,29.95,SSE,166,0.0,0.0,92,0.00,,,0.00,Wunderground v.1.15,2013-04-28 08:08:00,
2013-04-28 03:13:00,40.7,38.8,29.95,SSE,166,0.0,0.0,93,0.00,,,0.00,Wunderground v.1.15,2013-04-28 08:13:00,
2013-04-28 03:23:00,40.8,39.2,29.95,SSE,167,0.0,0.0,94,0.00,,,0.00,Wunderground v.1.15,2013-04-28 08:23:00,
2013-04-28 03:28:00,40.7,39.1,29.95,SSE,166,0.0,0.0,94,0.00,,,0.00,Wunderground v.1.15,2013-04-28 08:28:00,
2013-04-28 03:38:00,40.9,39.6,29.95,SSE,167,0.0,0.0,95,0.00,,,0.00,Wunderground v.1.15,2013-04-28 08:38:00,
2013-04-28 03:43:00,40.7,39.1,29.95,SSE,166,0.0,0.0,94,0.00,,,0.00,Wunderground v.1.15,2013-04-28 08:43:00,
2013-04-28 03:48:00,40.4,38.8,29.95,SSE,166,0.0,0.0,94,0.00,,,0.00,Wunderground v.1.15,2013-04-28 08:48:00,
2013-04-28 03:58:00,41.0,39.7,29.94,SSE,166,0.0,0.0,95,0.00,,,0.00,Wunderground v.1.15,2013-04-28 08:58:00,
2013-04-28 04:08:00,40.7,39.4,29.94,SSE,166,0.0,0.0,95,0.00,,,0.00,Wunderground v.1.15,2013-04-28 09:08:00,
2013-04-28 04:13:00,40.3,39.0,29.94,SSE,167,0.0,0.0,95,0.00,,,0.00,Wunderground v.1.15,2013-04-28 09:13:00,
2013-04-28 04:19:00,40.2,38.9,29.93,SSE,166,0.0,0.0,95,0.00,,,0.00,Wunderground v.1.15,2013-04-28 09:19:00,
2013-04-28 04:24:00,40.4,39.1,29.93,SSE,167,0.0,0.0,95,0.00,,,0.00,Wunderground v.1.15,2013-04-28 09:24:00,
2013-04-28 04:29:00,40.3,39.0,29.93,SSE,166,0.0,0.0,95,0.00,,,0.00,Wunderground v.1.15,2013-04-28 09:29:00,
2013-04-28 04:34:00,40.4,39.1,29.93,SSE,166,0.0,0.0,95,0.00,,,0.00,Wunderground v.1.15,2013-04-28 09:34:00,
2013-04-28 04:39:00,40.2,38.9,29.93,SSE,167,0.0,0.0,95,0.00,,,0.00,Wunderground v.1.15,2013-04-28 09:39:00,
2013-04-28 04:49:00,39.3,38.0,29.93,SSE,166,0.0,0.0,95,0.00,,,0.00,Wunderground v.1.15,2013-04-28 09:49:00,
2013-04-28 04:59:00,38.6,37.3,29.93,SSE,166,0.0,0.0,95,0.00,,,0.00,Wunderground v.1.15,2013-04-28 09:59:00,
2013-04-28 05:09:00,38.0,36.7,29.93,SSE,166,0.0,0.0,95,0.00,,,0.00,Wunderground v.1.15,2013-04-28 10:09:00,
2013-04-28 05:14:00,37.9,36.6,29.93,SSE,166,0.0,0.0,95,0.00,,,0.00,Wunderground v.1.15,2013-04-28 10:14:00,
2013-04-28 05:19:00,37.9,36.6,29.93,SSE,167,0.0,0.0,95,0.00,,,0.00,Wunderground v.1.15,2013-04-28 10:19:00,
2013-04-28 05:29:00,38.0,37.0,29.93,SSE,166,0.0,0.0,96,0.00,,,0.00,Wunderground v.1.15,2013-04-28 10:29:00,
2013-04-28 05:34:00,37.9,36.9,29.93,SSE,167,0.0,0.0,96,0.00,,,0.00,Wunderground v.1.15,2013-04-28 10:34:00,
2013-04-28 05:44:00,38.0,37.0,29.93,SSE,166,0.0,0.0,96,0.00,,,0.00,Wunderground v.1.15,2013-04-28 10:44:00,
2013-04-28 05:49:00,37.8,36.8,29.93,SSE,167,0.0,0.0,96,0.00,,,0.00,Wunderground v.1.15,2013-04-28 10:49:00,
2013-04-28 05:54:00,37.9,36.9,29.93,SSE,166,0.0,0.0,96,0.00,,,0.00,Wunderground v.1.15,2013-04-28 10:54:00,
2013-04-28 05:59:00,37.8,36.8,29.93,SSE,166,0.0,0.0,96,0.00,,,0.00,Wunderground v.1.15,2013-04-28 10:59:00,
2013-04-28 06:09:00,38.5,37.5,29.93,SSE,167,0.0,0.0,96,0.00,,,0.00,Wunderground v.1.15,2013-04-28 11:09:00,
2013-04-28 06:14:00,39.0,38.0,29.93,SSE,167,0.0,0.0,96,0.00,,,0.00,Wunderground v.1.15,2013-04-28 11:14:00,
2013-04-28 06:19:00,39.2,38.2,29.92,SSE,167,0.0,0.0,96,0.00,,,0.00,Wunderground v.1.15,2013-04-28 11:19:00,
2013-04-28 06:29:00,39.4,38.4,29.93,SSE,167,0.0,0.0,96,0.00,,,0.00,Wunderground v.1.15,2013-04-28 11:29:00,
2013-04-28 06:39:00,39.8,38.8,29.93,SSE,166,0.0,0.0,96,0.00,,,0.00,Wunderground v.1.15,2013-04-28 11:39:00,
2013-04-28 06:44:00,39.6,38.6,29.93,SW,226,0.0,0.0,96,0.00,,,0.00,Wunderground v.1.15,2013-04-28 11:44:00,
2013-04-28 06:49:00,39.5,38.5,29.93,SW,226,0.0,0.0,96,0.00,,,0.00,Wunderground v.1.15,2013-04-28 11:49:00,
2013-04-28 06:54:00,40.0,39.0,29.93,SW,226,0.0,0.0,96,0.00,,,0.00,Wunderground v.1.15,2013-04-28 11:54:00,
2013-04-28 06:59:00,40.9,39.8,29.93,SW,226,0.0,0.0,96,0.00,,,0.00,Wunderground v.1.15,2013-04-28 11:59:00,
2013-04-28 07:09:00,42.2,41.1,29.93,ESE,108,0.0,0.0,96,0.00,,,0.00,Wunderground v.1.15,2013-04-28 12:09:00,
2013-04-28 07:14:00,42.6,41.5,29.94,WNW,287,0.0,3.0,96,0.00,,,0.00,Wunderground v.1.15,2013-04-28 12:14:00,
2013-04-28 07:23:00,43.4,42.3,29.93,WNW,289,0.0,0.0,96,0.00,,,0.00,Wunderground v.1.15,2013-04-28 12:23:00,
2013-04-28 07:28:00,43.8,42.5,29.94,WNW,293,0.0,0.0,95,0.00,,,0.00,Wunderground v.1.15,2013-04-28 12:28:00,
2013-04-28 07:33:00,44.2,42.6,29.94,WNW,296,0.0,1.0,94,0.00,,,0.00,Wunderground v.1.15,2013-04-28 12:33:00,
2013-04-28 07:39:00,44.4,42.2,29.94,West,280,0.0,0.0,92,0.00,,,0.00,Wunderground v.1.15,2013-04-28 12:39:00,
2013-04-28 07:48:00,45.0,42.8,29.94,West,280,0.0,0.0,92,0.00,,,0.00,Wunderground v.1.15,2013-04-28 12:48:00,
2013-04-28 07:54:00,45.2,42.7,29.94,West,280,0.0,0.0,91,0.00,,,0.00,Wunderground v.1.15,2013-04-28 12:54:00,
2013-04-28 07:59:00,45.3,42.8,29.94,WNW,284,0.0,0.0,91,0.00,,,0.00,Wunderground v.1.15,2013-04-28 12:59:00,
2013-04-28 08:08:00,46.2,43.7,29.94,WNW,284,0.0,0.0,91,0.00,,,0.00,Wunderground v.1.15,2013-04-28 13:08:00,
2013-04-28 08:13:00,47.5,45.0,29.94,WNW,284,0.0,0.0,91,0.00,,,0.00,Wunderground v.1.15,2013-04-28 13:13:00,
2013-04-28 08:23:00,49.9,45.6,29.94,North,357,0.0,0.0,85,0.00,,,0.00,Wunderground v.1.15,2013-04-28 13:23:00,
2013-04-28 08:28:00,50.3,45.3,29.94,North,356,0.0,0.0,83,0.00,,,0.00,Wunderground v.1.15,2013-04-28 13:28:00,
2013-04-28 08:33:00,50.5,45.2,29.94,North,9,0.0,0.0,82,0.00,,,0.00,Wunderground v.1.15,2013-04-28 13:33:00,
2013-04-28 08:38:00,51.1,45.5,29.94,North,9,0.0,0.0,81,0.00,,,0.00,Wunderground v.1.15,2013-04-28 13:38:00,
2013-04-28 08:43:00,51.6,45.6,29.94,North,6,0.0,0.0,80,0.00,,,0.00,Wunderground v.1.15,2013-04-28 13:43:00,
2013-04-28 08:53:00,52.9,45.5,29.94,North,11,0.0,0.0,76,0.00,,,0.00,Wunderground v.1.15,2013-04-28 13:53:00,
2013-04-28 09:03:00,54.3,46.2,29.94,ENE,74,0.0,0.0,74,0.00,,,0.00,Wunderground v.1.15,2013-04-28 14:03:00,
2013-04-28 09:10:00,55.2,45.6,29.93,ENE,74,0.0,0.0,70,0.00,,,0.00,Wunderground v.1.15,2013-04-28 14:10:00,
2013-04-28 09:20:00,56.3,45.9,29.92,East,98,0.0,0.0,68,0.00,,,0.00,Wunderground v.1.15,2013-04-28 14:20:00,
2013-04-28 09:25:00,57.3,46.0,29.92,ESE,112,0.0,0.0,66,0.00,,,0.00,Wunderground v.1.15,2013-04-28 14:25:00,
2013-04-28 09:30:00,58.2,46.9,29.92,ENE,60,0.0,0.0,66,0.00,,,0.00,Wunderground v.1.15,2013-04-28 14:30:00,
2013-04-28 09:35:00,58.9,45.0,29.92,SE,139,0.0,0.0,60,0.00,,,0.00,Wunderground v.1.15,2013-04-28 14:35:00,
2013-04-28 09:40:00,59.5,45.2,29.92,NNE,29,0.0,0.0,59,0.00,,,0.00,Wunderground v.1.15,2013-04-28 14:40:00,
2013-04-28 09:50:00,60.9,45.1,29.92,ESE,111,0.0,0.0,56,0.00,,,0.00,Wunderground v.1.15,2013-04-28 14:50:00,
2013-04-28 09:55:00,61.3,44.5,29.91,NNE,29,0.0,0.0,54,0.00,,,0.00,Wunderground v.1.15,2013-04-28 14:55:00,
2013-04-28 10:00:00,60.7,43.5,29.91,NE,49,1.0,1.0,53,0.00,,,0.00,Wunderground v.1.15,2013-04-28 15:00:00,
2013-04-28 10:10:00,60.9,43.6,29.91,NE,39,1.0,2.0,53,0.00,,,0.00,Wunderground v.1.15,2013-04-28 15:10:00,
2013-04-28 10:15:00,61.1,45.7,29.91,North,356,1.0,2.0,57,0.00,,,0.00,Wunderground v.1.15,2013-04-28 15:15:00,
2013-04-28 10:20:00,61.3,44.5,29.91,ESE,117,1.0,1.0,54,0.00,,,0.00,Wunderground v.1.15,2013-04-28 15:20:00,
2013-04-28 10:30:00,62.5,45.1,29.91,NNE,27,0.0,0.0,53,0.00,,,0.00,Wunderground v.1.15,2013-04-28 15:30:00,
2013-04-28 10:35:00,63.0,44.1,29.90,NNW,346,0.0,0.0,50,0.00,,,0.00,Wunderground v.1.15,2013-04-28 15:35:00,
2013-04-28 10:40:00,63.3,44.3,29.90,NNE,27,0.0,0.0,50,0.00,,,0.00,Wunderground v.1.15,2013-04-28 15:40:00,
2013-04-28 10:45:00,63.6,43.5,29.90,NE,52,0.0,1.0,48,0.00,,,0.00,Wunderground v.1.15,2013-04-28 15:45:00,
2013-04-28 10:50:00,64.2,45.2,29.90,ESE,107,0.0,0.0,50,0.00,,,0.00,Wunderground v.1.15,2013-04-28 15:50:00,
2013-04-28 11:00:00,64.9,45.3,29.90,West,275,0.0,1.0,49,0.00,,,0.00,Wunderground v.1.15,2013-04-28 16:00:00,
2013-04-28 11:10:00,65.5,45.8,29.90,East,82,0.0,0.0,49,0.00,,,0.00,Wunderground v.1.15,2013-04-28 16:10:00,
2013-04-28 11:15:00,65.3,43.4,29.90,NE,42,1.0,1.0,45,0.00,,,0.00,Wunderground v.1.15,2013-04-28 16:15:00,
2013-04-28 11:20:00,65.4,44.1,29.90,NE,43,1.0,2.0,46,0.00,,,0.00,Wunderground v.1.15,2013-04-28 16:20:00,
2013-04-28 11:30:00,65.9,43.9,29.89,NW,321,0.0,1.0,45,0.00,,,0.00,Wunderground v.1.15,2013-04-28 16:30:00,
2013-04-28 11:35:00,66.3,44.9,29.89,NNW,337,0.0,2.0,46,0.00,,,0.00,Wunderground v.1.15,2013-04-28 16:35:00,
2013-04-28 11:40:00,66.7,43.5,29.88,SE,134,1.0,2.0,43,0.00,,,0.00,Wunderground v.1.15,2013-04-28 16:40:00,
2013-04-28 11:50:00,67.6,45.5,29.88,West,267,1.0,1.0,45,0.00,,,0.00,Wunderground v.1.15,2013-04-28 16:50:00,
2013-04-28 11:55:00,68.2,43.6,29.88,SW,228,1.0,1.0,41,0.00,,,0.00,Wunderground v.1.15,2013-04-28 16:55:00,
2013-04-28 12:00:00,68.7,44.0,29.88,North,6,1.0,1.0,41,0.00,,,0.00,Wunderground v.1.15,2013-04-28 17:00:00,
2013-04-28 12:10:00,68.2,42.9,29.88,SW,236,1.0,1.0,40,0.00,,,0.00,Wunderground v.1.15,2013-04-28 17:10:00,
2013-04-28 12:15:00,68.7,42.7,29.88,SW,228,1.0,1.0,39,0.00,,,0.00,Wunderground v.1.15,2013-04-28 17:15:00,
2013-04-28 12:20:00,69.1,44.4,29.88,ESE,120,1.0,2.0,41,0.00,,,0.00,Wunderground v.1.15,2013-04-28 17:20:00,
2013-04-28 12:25:00,69.2,43.8,29.88,East,85,1.0,2.0,40,0.00,,,0.00,Wunderground v.1.15,2013-04-28 17:25:00,
2013-04-28 12:30:00,69.4,42.7,29.88,ESE,120,1.0,1.0,38,0.00,,,0.00,Wunderground v.1.15,2013-04-28 17:30:00,
2013-04-28 12:40:00,69.7,43.6,29.87,NW,305,1.0,1.0,39,0.00,,,0.00,Wunderground v.1.15,2013-04-28 17:40:00,
2013-04-28 12:45:00,69.3,42.6,29.87,NNW,342,1.0,1.0,38,0.00,,,0.00,Wunderground v.1.15,2013-04-28 17:45:00,
2013-04-28 12:50:00,68.9,43.6,29.87,North,358,1.0,3.0,40,0.00,,,0.00,Wunderground v.1.15,2013-04-28 17:50:00,
2013-04-28 12:55:00,68.9,43.6,29.87,North,351,2.0,3.0,40,0.00,,,0.00,Wunderground v.1.15,2013-04-28 17:55:00,
2013-04-28 13:00:00,68.7,42.1,29.86,East,85,2.0,2.0,38,0.00,,,0.00,Wunderground v.1.15,2013-04-28 18:00:00,
2013-04-28 13:10:00,68.8,44.8,29.86,NNE,15,1.0,1.0,42,0.00,,,0.00,Wunderground v.1.15,2013-04-28 18:10:00,
2013-04-28 13:20:00,69.7,44.9,29.86,NE,51,1.0,1.0,41,0.00,,,0.00,Wunderground v.1.15,2013-04-28 18:20:00,
2013-04-28 13:25:00,69.5,44.1,29.85,ENE,63,1.0,1.0,40,0.00,,,0.00,Wunderground v.1.15,2013-04-28 18:25:00,
2013-04-28 13:30:00,69.9,43.1,29.85,West,264,1.0,3.0,38,0.00,,,0.00,Wunderground v.1.15,2013-04-28 18:30:00,
2013-04-28 13:35:00,70.4,44.3,29.85,NE,34,1.0,3.0,39,0.00,,,0.00,Wunderground v.1.15,2013-04-28 18:35:00,
2013-04-28 13:45:00,71.6,44.6,29.85,SW,215,1.0,1.0,38,0.00,,,0.00,Wunderground v.1.15,2013-04-28 18:45:00,
2013-04-28 13:50:00,72.0,45.7,29.85,ESE,116,1.0,3.0,39,0.00,,,0.00,Wunderground v.1.15,2013-04-28 18:50:00,
2013-04-28 13:55:00,71.4,44.5,29.85,SSW,208,2.0,3.0,38,0.00,,,0.00,Wunderground v.1.15,2013-04-28 18:55:00,
2013-04-28 14:00:00,71.2,45.0,29.85,WSW,243,2.0,2.0,39,0.00,,,0.00,Wunderground v.1.15,2013-04-28 19:00:00,
2013-04-28 14:10:00,70.6,44.4,29.84,NE,43,1.0,1.0,39,0.00,,,0.00,Wunderground v.1.15,2013-04-28 19:10:00,
2013-04-28 14:20:00,71.3,45.1,29.84,WSW,257,1.0,1.0,39,0.00,,,0.00,Wunderground v.1.15,2013-04-28 19:20:00,
2013-04-28 14:25:00,70.6,43.7,29.84,SW,231,2.0,4.0,38,0.00,,,0.00,Wunderground v.1.15,2013-04-28 19:25:00,
2013-04-28 14:30:00,70.1,45.3,29.84,WNW,290,3.0,3.0,41,0.00,,,0.00,Wunderground v.1.15,2013-04-28 19:30:00,
2013-04-28 14:39:00,70.2,44.7,29.83,ESE,109,1.0,1.0,40,0.00,,,0.00,Wunderground v.1.15,2013-04-28 19:39:00,
2013-04-28 14:45:00,71.2,46.9,29.83,ENE,70,1.0,1.0,42,0.00,,,0.00,Wunderground v.1.15,2013-04-28 19:45:00,
2013-04-28 14:54:00,72.0,47.6,29.82,SE,134,1.0,1.0,42,0.00,,,0.00,Wunderground v.1.15,2013-04-28 19:54:00,
2013-04-28 15:00:00,72.2,45.2,29.82,NW,322,1.0,1.0,38,0.00,,,0.00,Wunderground v.1.15,2013-04-28 20:00:00,
2013-04-28 15:10:00,71.2,45.0,29.82,WSW,243,2.0,2.0,39,0.00,,,0.00,Wunderground v.1.15,2013-04-28 20:10:00,
2013-04-28 15:15:00,71.2,45.6,29.82,NNE,32,2.0,2.0,40,0.00,,,0.00,Wunderground v.1.15,2013-04-28 20:15:00,
2013-04-28 15:25:00,71.6,45.3,29.81,West,270,1.0,1.0,39,0.00,,,0.00,Wunderground v.1.15,2013-04-28 20:25:00,
2013-04-28 15:30:00,72.1,45.1,29.81,SSE,160,1.0,1.0,38,0.00,,,0.00,Wunderground v.1.15,2013-04-28 20:30:00,
2013-04-28 15:35:00,72.0,46.3,29.81,NW,304,1.0,1.0,40,0.00,,,0.00,Wunderground v.1.15,2013-04-28 20:35:00,
2013-04-28 15:40:00,72.1,44.4,29.81,ENE,70,1.0,1.0,37,0.00,,,0.00,Wunderground v.1.15,2013-04-28 20:40:00,
2013-04-28 15:45:00,71.7,45.4,29.81,SSW,211,1.0,1.0,39,0.00,,,0.00,Wunderground v.1.15,2013-04-28 20:45:00,
2013-04-28 15:55:00,72.1,45.1,29.81,WSW,238,2.0,2.0,38,0.00,,,0.00,Wunderground v.1.15,2013-04-28 20:55:00,
2013-04-28 16:00:00,71.8,45.5,29.81,SSW,205,2.0,2.0,39,0.00,,,0.00,Wunderground v.1.15,2013-04-28 21:00:00,
2013-04-28 16:09:00,72.2,45.9,29.80,SW,225,1.0,1.0,39,0.00,,,0.00,Wunderground v.1.15,2013-04-28 21:09:00,
2013-04-28 16:14:00,72.0,45.0,29.80,NNE,33,1.0,1.0,38,0.00,,,0.00,Wunderground v.1.15,2013-04-28 21:14:00,
2013-04-28 16:19:00,72.2,45.2,29.79,ESE,108,1.0,1.0,38,0.00,,,0.00,Wunderground v.1.15,2013-04-28 21:19:00,
2013-04-28 16:25:00,72.5,45.4,29.80,SE,144,1.0,1.0,38,0.00,,,0.00,Wunderground v.1.15,2013-04-28 21:25:00,
2013-04-28 16:35:00,72.8,45.7,29.80,ESE,122,1.0,1.0,38,0.00,,,0.00,Wunderground v.1.15,2013-04-28 21:35:00,
2013-04-28 16:40:00,73.2,45.4,29.79,South,174,1.0,1.0,37,0.00,,,0.00,Wunderground v.1.15,2013-04-28 21:40:00,
2013-04-28 16:45:00,73.3,45.4,29.79,SSE,149,1.0,1.0,37,0.00,,,0.00,Wunderground v.1.15,2013-04-28 21:45:00,
2013-04-28 16:50:00,73.6,45.0,29.79,SW,229,1.0,2.0,36,0.00,,,0.00,Wunderground v.1.15,2013-04-28 21:50:00,
2013-04-28 16:55:00,73.3,44.7,29.79,ESE,123,1.0,4.0,36,0.00,,,0.00,Wunderground v.1.15,2013-04-28 21:55:00,
2013-04-28 17:00:00,72.6,45.5,29.79,East,100,2.0,2.0,38,0.00,,,0.00,Wunderground v.1.15,2013-04-28 22:00:00,
2013-04-28 17:10:00,72.5,44.7,29.79,East,96,1.0,1.0,37,0.00,,,0.00,Wunderground v.1.15,2013-04-28 22:10:00,
2013-04-28 17:19:00,71.9,44.2,29.78,NE,54,0.0,0.0,37,0.00,,,0.00,Wunderground v.1.15,2013-04-28 22:19:00,
2013-04-28 17:24:00,71.9,44.9,29.78,ESE,115,0.0,0.0,38,0.00,,,0.00,Wunderground v.1.15,2013-04-28 22:24:00,
2013-04-28 17:29:00,72.0,45.0,29.78,SW,225,0.0,3.0,38,0.00,,,0.00,Wunderground v.1.15,2013-04-28 22:29:00,
2013-04-28 17:39:00,73.3,44.7,29.78,ESE,112,1.0,1.0,36,0.00,,,0.00,Wunderground v.1.15,2013-04-28 22:39:00,
2013-04-28 17:44:00,73.1,45.3,29.78,SE,134,0.0,2.0,37,0.00,,,0.00,Wunderground v.1.15,2013-04-28 22:44:00,
2013-04-28 17:49:00,72.4,44.6,29.78,SE,127,1.0,1.0,37,0.00,,,0.00,Wunderground v.1.15,2013-04-28 22:49:00,
2013-04-28 17:54:00,71.6,45.3,29.78,SE,130,0.0,1.0,39,0.00,,,0.00,Wunderground v.1.15,2013-04-28 22:54:00,
2013-04-28 18:00:00,71.2,45.0,29.78,ESE,102,0.0,0.0,39,0.00,,,0.00,Wunderground v.1.15,2013-04-28 23:00:00,
2013-04-28 18:09:00,70.7,44.5,29.77,SE,131,0.0,0.0,39,0.00,,,0.00,Wunderground v.1.15,2013-04-28 23:09:00,
2013-04-28 18:14:00,70.7,44.5,29.78,SE,131,0.0,0.0,39,0.00,,,0.00,Wunderground v.1.15,2013-04-28 23:14:00,
2013-04-28 18:20:00,70.6,44.4,29.77,SE,127,0.0,0.0,39,0.00,,,0.00,Wunderground v.1.15,2013-04-28 23:20:00,
2013-04-28 18:25:00,70.5,45.7,29.77,SE,130,0.0,0.0,41,0.00,,,0.00,Wunderground v.1.15,2013-04-28 23:25:00,
2013-04-28 18:30:00,70.6,45.7,29.77,SE,144,0.0,0.0,41,0.00,,,0.00,Wunderground v.1.15,2013-04-28 23:30:00,
2013-04-28 18:39:00,70.5,45.7,29.77,East,96,1.0,2.0,41,0.00,,,0.00,Wunderground v.1.15,2013-04-28 23:39:00,
2013-04-28 18:45:00,69.9,46.4,29.77,SE,124,1.0,2.0,43,0.00,,,0.00,Wunderground v.1.15,2013-04-28 23:45:00,
2013-04-28 18:54:00,69.3,45.8,29.77,SE,129,1.0,1.0,43,0.00,,,0.00,Wunderground v.1.15,2013-04-28 23:54:00,
2013-04-28 19:00:00,69.1,45.7,29.77,SE,133,0.0,1.0,43,0.00,,,0.00,Wunderground v.1.15,2013-04-29 00:00:00,
2013-04-28 19:09:00,68.8,46.6,29.76,ESE,114,0.0,0.0,45,0.00,,,0.00,Wunderground v.1.15,2013-04-29 00:09:00,
2013-04-28 19:19:00,68.4,46.2,29.77,ESE,112,0.0,0.0,45,0.00,,,0.00,Wunderground v.1.15,2013-04-29 00:19:00,
2013-04-28 19:24:00,68.3,46.1,29.77,SE,134,0.0,0.0,45,0.00,,,0.00,Wunderground v.1.15,2013-04-29 00:24:00,
2013-04-28 19:29:00,68.0,46.4,29.77,ESE,120,0.0,0.0,46,0.00,,,0.00,Wunderground v.1.15,2013-04-29 00:29:00,
2013-04-28 19:34:00,67.6,46.1,29.77,ESE,117,0.0,2.0,46,0.00,,,0.00,Wunderground v.1.15,2013-04-29 00:34:00,
2013-04-28 19:39:00,67.1,46.2,29.77,ESE,117,1.0,1.0,47,0.00,,,0.00,Wunderground v.1.15,2013-04-29 00:39:00,
2013-04-28 19:44:00,66.6,46.3,29.77,SE,124,0.0,1.0,48,0.00,,,0.00,Wunderground v.1.15,2013-04-29 00:44:00,
2013-04-28 19:49:00,66.1,46.9,29.77,SE,127,0.0,0.0,50,0.00,,,0.00,Wunderground v.1.15,2013-04-29 00:49:00,
2013-04-28 19:54:00,65.3,46.7,29.77,SE,132,0.0,0.0,51,0.00,,,0.00,Wunderground v.1.15,2013-04-29 00:54:00,
2013-04-28 20:00:00,64.6,47.1,29.78,ESE,108,0.0,0.0,53,0.00,,,0.00,Wunderground v.1.15,2013-04-29 01:00:00,
2013-04-28 20:09:00,63.8,46.3,29.77,SSE,163,0.0,0.0,53,0.00,,,0.00,Wunderground v.1.15,2013-04-29 01:09:00,
2013-04-28 20:14:00,63.3,46.9,29.78,ESE,112,0.0,0.0,55,0.00,,,0.00,Wunderground v.1.15,2013-04-29 01:14:00,
2013-04-28 20:19:00,62.7,46.8,29.78,SE,132,0.0,0.0,56,0.00,,,0.00,Wunderground v.1.15,2013-04-29 01:19:00,
2013-04-28 20:29:00,61.8,46.9,29.78,SE,132,0.0,0.0,58,0.00,,,0.00,Wunderground v.1.15,2013-04-29 01:29:00,
2013-04-28 20:34:00,61.0,46.1,29.79,SE,133,0.0,0.0,58,0.00,,,0.00,Wunderground v.1.15,2013-04-29 01:34:00,
2013-04-28 20:39:00,60.2,46.3,29.79,SE,132,0.0,0.0,60,0.00,,,0.00,Wunderground v.1.15,2013-04-29 01:39:00,
2013-04-28 20:44:00,59.8,45.9,29.79,SE,132,0.0,0.0,60,0.00,,,0.00,Wunderground v.1.15,2013-04-29 01:44:00,
2013-04-28 20:49:00,59.4,46.4,29.79,SE,132,0.0,0.0,62,0.00,,,0.00,Wunderground v.1.15,2013-04-29 01:49:00,
2013-04-28 21:00:00,60.2,47.1,29.79,NE,50,0.0,0.0,62,0.00,,,0.00,Wunderground v.1.15,2013-04-29 02:00:00,
2013-04-28 21:09:00,59.4,47.2,29.79,NE,51,0.0,0.0,64,0.00,,,0.00,Wunderground v.1.15,2013-04-29 02:09:00,
2013-04-28 21:14:00,59.4,47.2,29.79,NE,51,0.0,0.0,64,0.00,,,0.00,Wunderground v.1.15,2013-04-29 02:14:00,
2013-04-28 21:24:00,59.3,47.5,29.79,WSW,250,0.0,0.0,65,0.00,,,0.00,Wunderground v.1.15,2013-04-29 02:24:00,
2013-04-28 21:34:00,60.0,47.8,29.79,SE,136,0.0,0.0,64,0.00,,,0.00,Wunderground v.1.15,2013-04-29 02:34:00,
2013-04-28 21:39:00,59.9,47.7,29.80,SE,146,0.0,0.0,64,0.00,,,0.00,Wunderground v.1.15,2013-04-29 02:39:00,
2013-04-28 21:49:00,59.6,47.8,29.80,West,265,0.0,0.0,65,0.00,,,0.00,Wunderground v.1.15,2013-04-29 02:49:00,
2013-04-28 21:54:00,59.8,48.0,29.80,WSW,249,0.0,0.0,65,0.00,,,0.00,Wunderground v.1.15,2013-04-29 02:54:00,
2013-04-28 21:59:00,59.6,47.8,29.80,SE,139,0.0,0.0,65,0.00,,,0.00,Wunderground v.1.15,2013-04-29 02:59:00,
2013-04-28 22:09:00,59.8,48.4,29.80,East,90,0.0,0.0,66,0.00,,,0.00,Wunderground v.1.15,2013-04-29 03:09:00,
2013-04-28 22:14:00,59.7,48.3,29.80,SSE,161,0.0,0.0,66,0.00,,,0.00,Wunderground v.1.15,2013-04-29 03:14:00,
2013-04-28 22:19:00,59.4,48.0,29.80,East,101,0.0,0.0,66,0.00,,,0.00,Wunderground v.1.15,2013-04-29 03:19:00,
2013-04-28 22:24:00,59.1,47.7,29.80,South,188,0.0,0.0,66,0.00,,,0.00,Wunderground v.1.15,2013-04-29 03:24:00,
2013-04-28 22:29:00,58.3,47.8,29.80,SE,127,0.0,0.0,68,0.00,,,0.00,Wunderground v.1.15,2013-04-29 03:29:00,
2013-04-28 22:34:00,58.0,47.9,29.80,East,82,0.0,0.0,69,0.00,,,0.00,Wunderground v.1.15,2013-04-29 03:34:00,
2013-04-28 22:39:00,58.2,48.1,29.80,WSW,245,0.0,0.0,69,0.00,,,0.00,Wunderground v.1.15,2013-04-29 03:39:00,
2013-04-28 22:49:00,58.5,48.0,29.80,SE,132,0.0,0.0,68,0.00,,,0.00,Wunderground v.1.15,2013-04-29 03:49:00,
2013-04-28 22:59:00,58.0,47.9,29.80,ESE,108,0.0,0.0,69,0.00,,,0.00,Wunderground v.1.15,2013-04-29 03:59:00,
2013-04-28 23:04:00,57.3,47.6,29.80,ESE,117,0.0,0.0,70,0.00,,,0.00,Wunderground v.1.15,2013-04-29 04:04:00,
2013-04-28 23:09:00,56.5,47.6,29.80,SSW,211,0.0,0.0,72,0.00,,,0.00,Wunderground v.1.15,2013-04-29 04:09:00,
2013-04-28 23:14:00,55.9,47.4,29.80,SE,139,0.0,0.0,73,0.00,,,0.00,Wunderground v.1.15,2013-04-29 04:14:00,
2013-04-28 23:19:00,55.9,47.4,29.80,SE,140,0.0,0.0,73,0.00,,,0.00,Wunderground v.1.15,2013-04-29 04:19:00,
2013-04-28 23:24:00,56.2,47.7,29.80,SE,132,0.0,0.0,73,0.00,,,0.00,Wunderground v.1.15,2013-04-29 04:24:00,
2013-04-28 23:29:00,55.9,47.4,29.80,SE,132,0.0,0.0,73,0.00,,,0.00,Wunderground v.1.15,2013-04-29 04:29:00,
2013-04-28 23:34:00,55.3,47.2,29.80,SE,131,0.0,0.0,74,0.00,,,0.00,Wunderground v.1.15,2013-04-29 04:34:00,
2013-04-28 23:39:00,55.0,47.2,29.80,SSE,160,0.0,0.0,75,0.00,,,0.00,Wunderground v.1.15,2013-04-29 04:39:00,
2013-04-28 23:44:00,54.6,46.8,29.80,SSE,159,0.0,0.0,75,0.00,,,0.00,Wunderground v.1.15,2013-04-29 04:44:00,
2013-04-28 23:49:00,54.4,47.0,29.80,SSE,158,0.0,0.0,76,0.00,,,0.00,Wunderground v.1.15,2013-04-29 04:49:00,
2013-04-28 23:59:00,53.8,46.8,29.80,SSW,200,0.0,0.0,77,0.00,,,0.00,Wunderground v.1.15,2013-04-29 04:59:00,